,,PA_Meas_PMT16A,,PR_Meas_QMR101_102,,RH_Meas_QMH101,,SR_Meas_QMS101,,TA_Meas_QMH101,,GenWind,,GenWind,
time,status,PA,status,PR,status,RH,status,SR,status,TA,status,DirAvg,status,SpdAvg,
2013-06-08, 00:00:04,VALID,917.214,VALID,0,VALID,92.9066,VALID,0,VALID,22.0989,VALID,12,VALID,0,
2013-06-08, 00:01:04,VALID,917.201,VALID,0,VALID,92.8532,VALID,0,VALID,22.1379,VALID,12,VALID,0,
2013-06-08, 00:02:04,VALID,917.22,VALID,0,VALID,92.7693,VALID,0,VALID,22.1379,VALID,12,VALID,0,
2013-06-08, 00:03:04,VALID,917.181,VALID,0,VALID,92.5635,VALID,0,VALID,22.1201,VALID,12,VALID,0,
2013-06-08, 00:04:04,VALID,917.176,VALID,0,VALID,92.5483,VALID,0,VALID,22.081,VALID,12,VALID,0,
2013-06-08, 00:05:04,VALID,917.126,VALID,0,VALID,92.6702,VALID,0,VALID,22.042,VALID,12,VALID,0,
2013-06-08, 00:06:04,VALID,917.146,VALID,0,VALID,92.8303,VALID,0,VALID,22.0615,VALID,12,VALID,0,
2013-06-08, 00:07:04,VALID,917.151,VALID,0,VALID,92.9142,VALID,0.107441,VALID,22.0208,VALID,12,VALID,0,
2013-06-08, 00:08:04,VALID,917.138,VALID,0,VALID,93.0209,VALID,0,VALID,22.0615,VALID,12,VALID,0,
2013-06-08, 00:09:04,VALID,917.176,VALID,0,VALID,93.0667,VALID,0,VALID,22.081,VALID,12,VALID,0,
2013-06-08, 00:10:04,VALID,917.171,VALID,0,VALID,92.9599,VALID,0,VALID,22.081,VALID,12,VALID,0,
2013-06-08, 00:11:04,VALID,917.179,VALID,0,VALID,92.8151,VALID,0,VALID,22.0403,VALID,12,VALID,0,
2013-06-08, 00:12:04,VALID,917.177,VALID,0,VALID,92.7922,VALID,0,VALID,22.003,VALID,12,VALID,0,
2013-06-08, 00:13:04,VALID,917.184,VALID,0,VALID,92.9142,VALID,0,VALID,21.9835,VALID,12,VALID,0,
2013-06-08, 00:14:04,VALID,917.196,VALID,0,VALID,93.0209,VALID,0.107441,VALID,21.9249,VALID,12,VALID,0,
2013-06-08, 00:15:04,VALID,917.149,VALID,0,VALID,93.1734,VALID,0,VALID,21.9054,VALID,18,VALID,0,
2013-06-08, 00:16:04,VALID,917.14,VALID,0,VALID,93.303,VALID,0,VALID,21.8876,VALID,33,VALID,0,
2013-06-08, 00:17:04,VALID,917.107,VALID,0,VALID,93.4402,VALID,0,VALID,21.8452,VALID,33,VALID,0,
2013-06-08, 00:18:04,VALID,917.109,VALID,0,VALID,93.5774,VALID,0,VALID,21.8859,VALID,33,VALID,0,
2013-06-08, 00:19:04,VALID,917.073,VALID,0,VALID,93.6232,VALID,0,VALID,21.8647,VALID,33,VALID,0,
2013-06-08, 00:20:04,VALID,917.078,VALID,0,VALID,93.6842,VALID,0,VALID,21.9249,VALID,33,VALID,0,
2013-06-08, 00:21:04,VALID,917.067,VALID,0,VALID,93.6308,VALID,0,VALID,21.9038,VALID,157,VALID,0,
2013-06-08, 00:22:04,VALID,917.068,VALID,0,VALID,93.6003,VALID,0,VALID,21.964,VALID,157,VALID,0,
2013-06-08, 00:23:04,VALID,917.072,VALID,0,VALID,93.5927,VALID,0,VALID,21.9656,VALID,157,VALID,0,
2013-06-08, 00:24:04,VALID,917.091,VALID,0,VALID,93.6384,VALID,0,VALID,21.9233,VALID,157,VALID,0,
2013-06-08, 00:25:04,VALID,917.065,VALID,0,VALID,93.6765,VALID,0,VALID,21.9444,VALID,157,VALID,0,
2013-06-08, 00:26:04,VALID,917.061,VALID,0,VALID,93.707,VALID,0,VALID,21.964,VALID,157,VALID,0,
2013-06-08, 00:27:04,VALID,917.067,VALID,0,VALID,93.7223,VALID,0,VALID,21.9444,VALID,157,VALID,0,
2013-06-08, 00:28:04,VALID,917.09,VALID,0,VALID,93.7604,VALID,0,VALID,21.9233,VALID,157,VALID,0,
2013-06-08, 00:29:04,VALID,917.061,VALID,0,VALID,93.7604,VALID,0,VALID,21.9444,VALID,157,VALID,0,
2013-06-08, 00:30:04,VALID,917.102,VALID,0,VALID,93.7528,VALID,0,VALID,21.9444,VALID,157,VALID,0,
2013-06-08, 00:31:04,VALID,917.067,VALID,0,VALID,93.768,VALID,0,VALID,21.9444,VALID,157,VALID,0,
2013-06-08, 00:32:04,VALID,917.042,VALID,0,VALID,93.7604,VALID,0,VALID,21.9038,VALID,157,VALID,0,
2013-06-08, 00:33:04,VALID,917.018,VALID,0,VALID,93.7604,VALID,0,VALID,21.9249,VALID,157,VALID,0,
2013-06-08, 00:34:04,VALID,916.992,VALID,0,VALID,93.8061,VALID,0,VALID,21.9054,VALID,157,VALID,0,
2013-06-08, 00:35:04,VALID,916.978,VALID,0,VALID,93.7985,VALID,0,VALID,21.9054,VALID,157,VALID,0,
2013-06-08, 00:36:04,VALID,916.946,VALID,0,VALID,93.829,VALID,0,VALID,21.9249,VALID,157,VALID,0,
2013-06-08, 00:37:04,VALID,916.953,VALID,0,VALID,93.8214,VALID,0,VALID,21.9249,VALID,157,VALID,0,
2013-06-08, 00:38:04,VALID,916.972,VALID,0,VALID,93.8519,VALID,0,VALID,21.9054,VALID,157,VALID,0,
2013-06-08, 00:39:04,VALID,916.981,VALID,0,VALID,93.9281,VALID,0,VALID,21.9038,VALID,157,VALID,0,
2013-06-08, 00:40:04,VALID,916.986,VALID,0,VALID,93.9891,VALID,0,VALID,21.9233,VALID,157,VALID,0,
2013-06-08, 00:41:04,VALID,916.99,VALID,0,VALID,94.0425,VALID,0,VALID,21.964,VALID,157,VALID,0,
2013-06-08, 00:42:04,VALID,917.001,VALID,0,VALID,94.073,VALID,0,VALID,21.9623,VALID,74,VALID,0,
2013-06-08, 00:43:04,VALID,916.996,VALID,0,VALID,93.89,VALID,0,VALID,21.9623,VALID,73,VALID,0,
2013-06-08, 00:44:04,VALID,917.033,VALID,0,VALID,93.8061,VALID,0,VALID,21.9835,VALID,44,VALID,0,
2013-06-08, 00:45:04,VALID,917.021,VALID,0,VALID,93.8595,VALID,0,VALID,21.9233,VALID,44,VALID,0,
2013-06-08, 00:46:04,VALID,917.001,VALID,0,VALID,94.0043,VALID,0,VALID,21.9444,VALID,44,VALID,0,
2013-06-08, 00:47:04,VALID,916.995,VALID,0,VALID,93.8976,VALID,0.107441,VALID,21.9428,VALID,44,VALID,0,
2013-06-08, 00:48:04,VALID,916.982,VALID,0,VALID,93.9357,VALID,0.107441,VALID,21.964,VALID,44,VALID,0,
2013-06-08, 00:49:04,VALID,916.968,VALID,0,VALID,93.8747,VALID,0,VALID,21.964,VALID,44,VALID,0,
2013-06-08, 00:50:04,VALID,917.002,VALID,0,VALID,93.8366,VALID,0.107441,VALID,21.964,VALID,44,VALID,0,
2013-06-08, 00:51:04,VALID,917.018,VALID,0,VALID,93.8671,VALID,0,VALID,21.964,VALID,44,VALID,0,
2013-06-08, 00:52:04,VALID,917.011,VALID,0,VALID,93.7756,VALID,0,VALID,21.9835,VALID,44,VALID,0,
2013-06-08, 00:53:04,VALID,917.009,VALID,0,VALID,93.8595,VALID,0,VALID,21.9428,VALID,44,VALID,0,
2013-06-08, 00:54:04,VALID,916.994,VALID,0,VALID,93.8366,VALID,0,VALID,21.9835,VALID,44,VALID,0,
2013-06-08, 00:55:04,VALID,917.001,VALID,0,VALID,93.8519,VALID,0.107441,VALID,21.9623,VALID,44,VALID,0,
2013-06-08, 00:56:04,VALID,916.989,VALID,0,VALID,93.7223,VALID,0,VALID,21.9835,VALID,44,VALID,0,
2013-06-08, 00:57:04,VALID,916.982,VALID,0,VALID,93.6994,VALID,0,VALID,21.9835,VALID,44,VALID,0,
2013-06-08, 00:58:04,VALID,916.957,VALID,0,VALID,93.707,VALID,0.107441,VALID,21.964,VALID,44,VALID,0,
2013-06-08, 00:59:04,VALID,916.926,VALID,0,VALID,93.7528,VALID,0,VALID,21.9835,VALID,44,VALID,0,
2013-06-08, 01:00:04,VALID,916.915,VALID,0,VALID,93.7528,VALID,0,VALID,21.9835,VALID,44,VALID,0,
2013-06-08, 01:01:04,VALID,916.94,VALID,0,VALID,93.7299,VALID,0,VALID,22.0225,VALID,44,VALID,0,
2013-06-08, 01:02:04,VALID,916.906,VALID,0,VALID,93.7223,VALID,0,VALID,22.0013,VALID,44,VALID,0,
2013-06-08, 01:03:04,VALID,916.892,VALID,0,VALID,93.6232,VALID,0,VALID,22.0615,VALID,44,VALID,0,
2013-06-08, 01:04:04,VALID,916.915,VALID,0,VALID,93.5164,VALID,0,VALID,22.081,VALID,44,VALID,0,
2013-06-08, 01:05:04,VALID,916.915,VALID,0,VALID,93.3487,VALID,0,VALID,22.081,VALID,44,VALID,0,
2013-06-08, 01:06:04,VALID,916.94,VALID,0,VALID,93.2496,VALID,0,VALID,22.0615,VALID,44,VALID,0,
2013-06-08, 01:07:04,VALID,916.927,VALID,0,VALID,93.2191,VALID,0,VALID,22.0827,VALID,44,VALID,0,
2013-06-08, 01:08:04,VALID,916.915,VALID,0,VALID,93.2954,VALID,0,VALID,22.081,VALID,44,VALID,0,
2013-06-08, 01:09:04,VALID,916.928,VALID,0,VALID,93.2344,VALID,0,VALID,22.1005,VALID,44,VALID,0,
2013-06-08, 01:10:04,VALID,916.939,VALID,0,VALID,93.1658,VALID,0,VALID,22.1005,VALID,44,VALID,0,
2013-06-08, 01:11:04,VALID,916.914,VALID,0,VALID,93.12,VALID,0,VALID,22.0794,VALID,44,VALID,0,
2013-06-08, 01:12:04,VALID,916.927,VALID,0,VALID,93.0895,VALID,0.107441,VALID,22.0615,VALID,44,VALID,0,
2013-06-08, 01:13:04,VALID,916.913,VALID,0,VALID,93.1429,VALID,0,VALID,22.042,VALID,44,VALID,0,
2013-06-08, 01:14:04,VALID,916.885,VALID,0,VALID,93.2572,VALID,0,VALID,22.042,VALID,44,VALID,0,
2013-06-08, 01:15:04,VALID,916.888,VALID,0,VALID,93.2572,VALID,0,VALID,22.042,VALID,44,VALID,0,
2013-06-08, 01:16:04,VALID,916.856,VALID,0,VALID,93.2191,VALID,0,VALID,22.0208,VALID,44,VALID,0,
2013-06-08, 01:17:04,VALID,916.828,VALID,0,VALID,93.2954,VALID,0,VALID,22.0225,VALID,44,VALID,0,
2013-06-08, 01:18:04,VALID,916.814,VALID,0,VALID,93.2649,VALID,0,VALID,22.0225,VALID,44,VALID,0,
2013-06-08, 01:19:04,VALID,916.795,VALID,0,VALID,93.3335,VALID,0,VALID,21.9818,VALID,44,VALID,0,
2013-06-08, 01:20:04,VALID,916.761,VALID,0,VALID,93.4097,VALID,0,VALID,22.0225,VALID,44,VALID,0,
2013-06-08, 01:21:04,VALID,916.75,VALID,0,VALID,93.4555,VALID,0,VALID,22.0013,VALID,44,VALID,0,
2013-06-08, 01:22:04,VALID,916.721,VALID,0,VALID,93.5164,VALID,0,VALID,22.0225,VALID,44,VALID,0,
2013-06-08, 01:23:04,VALID,916.701,VALID,0,VALID,93.5088,VALID,0,VALID,22.003,VALID,44,VALID,0,
2013-06-08, 01:24:04,VALID,916.701,VALID,0,VALID,93.5851,VALID,0,VALID,22.003,VALID,44,VALID,0,
2013-06-08, 01:25:04,VALID,916.677,VALID,0,VALID,93.707,VALID,0,VALID,21.9835,VALID,44,VALID,0,
2013-06-08, 01:26:04,VALID,916.657,VALID,0,VALID,93.7147,VALID,0,VALID,21.9835,VALID,44,VALID,0,
2013-06-08, 01:27:04,VALID,916.653,VALID,0,VALID,93.7299,VALID,0,VALID,21.9444,VALID,44,VALID,0,
2013-06-08, 01:28:04,VALID,916.644,VALID,0,VALID,93.8138,VALID,0,VALID,21.9444,VALID,44,VALID,0,
2013-06-08, 01:29:04,VALID,916.626,VALID,0,VALID,93.8595,VALID,0,VALID,21.9249,VALID,44,VALID,0,
2013-06-08, 01:30:04,VALID,916.631,VALID,0,VALID,93.8824,VALID,0,VALID,21.9054,VALID,44,VALID,0,
2013-06-08, 01:31:04,VALID,916.583,VALID,0,VALID,93.9586,VALID,0,VALID,21.8452,VALID,44,VALID,0,
2013-06-08, 01:32:04,VALID,916.576,VALID,0,VALID,93.9891,VALID,0,VALID,21.8469,VALID,44,VALID,0,
2013-06-08, 01:33:04,VALID,916.528,VALID,0,VALID,94.1111,VALID,0,VALID,21.8469,VALID,44,VALID,0,
2013-06-08, 01:34:04,VALID,916.5,VALID,0,VALID,94.1339,VALID,0,VALID,21.8664,VALID,44,VALID,0,
2013-06-08, 01:35:04,VALID,916.507,VALID,0,VALID,94.2026,VALID,0,VALID,21.8469,VALID,44,VALID,0,
2013-06-08, 01:36:04,VALID,916.482,VALID,0,VALID,94.2483,VALID,0,VALID,21.8469,VALID,44,VALID,0,
2013-06-08, 01:37:04,VALID,916.442,VALID,0,VALID,94.2483,VALID,0,VALID,21.8664,VALID,44,VALID,0,
2013-06-08, 01:38:04,VALID,916.398,VALID,0,VALID,94.2635,VALID,0,VALID,21.8842,VALID,44,VALID,0,
2013-06-08, 01:39:04,VALID,916.35,VALID,0,VALID,94.2178,VALID,0,VALID,21.8876,VALID,55,VALID,0,
2013-06-08, 01:40:04,VALID,916.337,VALID,0,VALID,94.1416,VALID,0,VALID,21.9054,VALID,57,VALID,0,
2013-06-08, 01:41:04,VALID,916.348,VALID,0,VALID,94.0425,VALID,0,VALID,21.9266,VALID,57,VALID,0,
2013-06-08, 01:42:04,VALID,916.323,VALID,0,VALID,93.9815,VALID,0,VALID,21.9266,VALID,57,VALID,0,
2013-06-08, 01:43:04,VALID,916.308,VALID,0,VALID,93.9281,VALID,0,VALID,21.9054,VALID,57,VALID,0,
2013-06-08, 01:44:04,VALID,916.302,VALID,0,VALID,93.9205,VALID,0,VALID,21.9461,VALID,57,VALID,0,
2013-06-08, 01:45:04,VALID,916.326,VALID,0,VALID,93.8747,VALID,0,VALID,21.9656,VALID,124,VALID,0,
2013-06-08, 01:46:04,VALID,916.306,VALID,0,VALID,93.8595,VALID,0,VALID,21.9461,VALID,126,VALID,0,
2013-06-08, 01:47:04,VALID,916.276,VALID,0,VALID,93.8138,VALID,0,VALID,21.9266,VALID,126,VALID,0,
2013-06-08, 01:48:04,VALID,916.288,VALID,0,VALID,93.8671,VALID,0,VALID,21.9054,VALID,126,VALID,0,
2013-06-08, 01:49:04,VALID,916.292,VALID,0,VALID,93.8747,VALID,0,VALID,21.9071,VALID,126,VALID,0,
2013-06-08, 01:50:04,VALID,916.248,VALID,0,VALID,93.8976,VALID,0,VALID,21.8876,VALID,126,VALID,0,
2013-06-08, 01:51:04,VALID,916.239,VALID,0,VALID,93.9891,VALID,0,VALID,21.9283,VALID,126,VALID,0,
2013-06-08, 01:52:04,VALID,916.199,VALID,0,VALID,93.9205,VALID,0,VALID,21.9071,VALID,126,VALID,0,
2013-06-08, 01:53:04,VALID,916.204,VALID,0,VALID,93.89,VALID,0,VALID,21.8859,VALID,126,VALID,0,
2013-06-08, 01:54:04,VALID,916.153,VALID,0,VALID,93.8824,VALID,0,VALID,21.8859,VALID,126,VALID,0,
2013-06-08, 01:55:04,VALID,916.116,VALID,0,VALID,93.8747,VALID,0,VALID,21.8859,VALID,126,VALID,0,
2013-06-08, 01:56:04,VALID,916.099,VALID,0,VALID,93.8214,VALID,0,VALID,21.8859,VALID,126,VALID,0,
2013-06-08, 01:57:04,VALID,916.055,VALID,0,VALID,93.8443,VALID,0,VALID,21.8647,VALID,126,VALID,0,
2013-06-08, 01:58:04,VALID,916.059,VALID,0,VALID,93.8061,VALID,0,VALID,21.8664,VALID,126,VALID,0,
2013-06-08, 01:59:05,VALID,916.077,VALID,0,VALID,93.7756,VALID,0,VALID,21.8664,VALID,126,VALID,0,
2013-06-08, 02:00:05,VALID,916.097,VALID,0,VALID,93.7985,VALID,0,VALID,21.8664,VALID,126,VALID,0,
2013-06-08, 02:01:05,VALID,916.08,VALID,0,VALID,93.7756,VALID,0,VALID,21.9054,VALID,126,VALID,0,
2013-06-08, 02:02:05,VALID,916.094,VALID,0,VALID,93.768,VALID,0,VALID,21.9054,VALID,126,VALID,0,
2013-06-08, 02:03:05,VALID,916.102,VALID,0,VALID,93.7451,VALID,0,VALID,21.9054,VALID,126,VALID,0,
2013-06-08, 02:04:05,VALID,916.081,VALID,0,VALID,93.7375,VALID,0,VALID,21.9444,VALID,126,VALID,0,
2013-06-08, 02:05:05,VALID,916.058,VALID,0,VALID,93.7451,VALID,0,VALID,21.9444,VALID,126,VALID,0,
2013-06-08, 02:06:05,VALID,916.075,VALID,0,VALID,93.768,VALID,0,VALID,21.9444,VALID,126,VALID,0,
2013-06-08, 02:07:05,VALID,916.078,VALID,0,VALID,93.8519,VALID,0,VALID,21.964,VALID,126,VALID,0,
2013-06-08, 02:08:05,VALID,916.061,VALID,0,VALID,93.7985,VALID,0,VALID,22.0047,VALID,126,VALID,0,
2013-06-08, 02:09:05,VALID,916.055,VALID,0,VALID,93.7528,VALID,0,VALID,22.0225,VALID,126,VALID,0,
2013-06-08, 02:10:05,VALID,916.08,VALID,0,VALID,93.6842,VALID,0,VALID,22.0225,VALID,124,VALID,0,
2013-06-08, 02:11:05,VALID,916.115,VALID,0,VALID,93.4402,VALID,0,VALID,22.0225,VALID,17,VALID,0,
2013-06-08, 02:12:05,VALID,916.156,VALID,0,VALID,93.3182,VALID,0,VALID,22.0047,VALID,17,VALID,0,
2013-06-08, 02:13:05,VALID,916.152,VALID,0,VALID,93.3259,VALID,0,VALID,21.9444,VALID,17,VALID,0,
2013-06-08, 02:14:05,VALID,916.128,VALID,0,VALID,93.5698,VALID,0,VALID,21.9054,VALID,17,VALID,0,
2013-06-08, 02:15:05,VALID,916.132,VALID,0,VALID,93.7833,VALID,0,VALID,21.9038,VALID,17,VALID,0,
2013-06-08, 02:16:05,VALID,916.14,VALID,0,VALID,93.8519,VALID,0,VALID,21.8859,VALID,17,VALID,0,
2013-06-08, 02:17:05,VALID,916.125,VALID,0,VALID,93.8976,VALID,0,VALID,21.8664,VALID,17,VALID,0,
2013-06-08, 02:18:05,VALID,916.073,VALID,0,VALID,93.9738,VALID,0,VALID,21.8452,VALID,17,VALID,0,
2013-06-08, 02:19:05,VALID,916.1,VALID,0,VALID,94.1034,VALID,0,VALID,21.8469,VALID,17,VALID,0,
2013-06-08, 02:20:05,VALID,916.069,VALID,0,VALID,94.1949,VALID,0,VALID,21.8664,VALID,17,VALID,0,
2013-06-08, 02:21:05,VALID,916.061,VALID,0,VALID,94.1644,VALID,0,VALID,21.8274,VALID,17,VALID,0,
2013-06-08, 02:22:05,VALID,916.034,VALID,0,VALID,94.1568,VALID,0,VALID,21.8274,VALID,17,VALID,0,
2013-06-08, 02:23:05,VALID,916.083,VALID,0,VALID,94.2788,VALID,0,VALID,21.8079,VALID,17,VALID,0,
2013-06-08, 02:24:05,VALID,916.073,VALID,0,VALID,94.3093,VALID,0,VALID,21.8274,VALID,17,VALID,0,
2013-06-08, 02:25:05,VALID,916.074,VALID,0,VALID,94.3931,VALID,0,VALID,21.8079,VALID,17,VALID,0,
2013-06-08, 02:26:05,VALID,916.055,VALID,0,VALID,94.3779,VALID,0,VALID,21.7883,VALID,17,VALID,0,
2013-06-08, 02:27:05,VALID,916.068,VALID,0,VALID,94.4922,VALID,0,VALID,21.7883,VALID,17,VALID,0,
2013-06-08, 02:28:05,VALID,916.056,VALID,0,VALID,94.538,VALID,0,VALID,21.7493,VALID,17,VALID,0,
2013-06-08, 02:29:05,VALID,916.065,VALID,0,VALID,94.6066,VALID,0,VALID,21.7282,VALID,17,VALID,0,
2013-06-08, 02:30:05,VALID,916.034,VALID,0,VALID,94.6523,VALID,0,VALID,21.7298,VALID,17,VALID,0,
2013-06-08, 02:31:05,VALID,916.03,VALID,0,VALID,94.6828,VALID,0,VALID,21.7298,VALID,30,VALID,0,
2013-06-08, 02:32:05,VALID,916.014,VALID,0,VALID,94.7591,VALID,0,VALID,21.7103,VALID,1,VALID,0,
2013-06-08, 02:33:05,VALID,916.027,VALID,0,VALID,94.8505,VALID,0,VALID,21.6908,VALID,10,VALID,0,
2013-06-08, 02:34:05,VALID,916.002,VALID,0,VALID,95.0183,VALID,0,VALID,21.6713,VALID,9,VALID,0,
2013-06-08, 02:35:05,VALID,915.996,VALID,0,VALID,95.0259,VALID,0,VALID,21.6518,VALID,10,VALID,0,
2013-06-08, 02:36:05,VALID,916.02,VALID,0,VALID,95.1097,VALID,0,VALID,21.6323,VALID,3,VALID,0,
2013-06-08, 02:37:05,VALID,915.997,VALID,0,VALID,95.2165,VALID,0,VALID,21.6323,VALID,5,VALID,0,
2013-06-08, 02:38:05,VALID,915.986,VALID,0,VALID,95.247,VALID,0,VALID,21.6111,VALID,12,VALID,0,
2013-06-08, 02:39:05,VALID,915.977,VALID,0,VALID,95.3003,VALID,0,VALID,21.6518,VALID,10,VALID,0,
2013-06-08, 02:40:05,VALID,915.967,VALID,0,VALID,95.3232,VALID,0,VALID,21.6323,VALID,352,VALID,0,
2013-06-08, 02:41:05,VALID,915.952,VALID,0,VALID,95.3994,VALID,0,VALID,21.6713,VALID,349,VALID,0,
2013-06-08, 02:42:05,VALID,915.921,VALID,0,VALID,95.4528,VALID,0,VALID,21.6713,VALID,350,VALID,0,
2013-06-08, 02:43:05,VALID,915.892,VALID,0,VALID,95.4604,VALID,0,VALID,21.6908,VALID,350,VALID,0,
2013-06-08, 02:44:05,VALID,915.882,VALID,0,VALID,95.4604,VALID,0,VALID,21.6713,VALID,350,VALID,0,
2013-06-08, 02:45:05,VALID,915.849,VALID,0,VALID,95.4528,VALID,0,VALID,21.6501,VALID,350,VALID,0,
2013-06-08, 02:46:05,VALID,915.812,VALID,0,VALID,95.4833,VALID,0,VALID,21.6518,VALID,350,VALID,0,
2013-06-08, 02:47:05,VALID,915.754,VALID,0,VALID,95.5214,VALID,0,VALID,21.6713,VALID,350,VALID,0,
2013-06-08, 02:48:05,VALID,915.742,VALID,0,VALID,95.5671,VALID,0,VALID,21.6713,VALID,350,VALID,0,
2013-06-08, 02:49:05,VALID,915.728,VALID,0,VALID,95.5824,VALID,0,VALID,21.6696,VALID,350,VALID,0,
2013-06-08, 02:50:05,VALID,915.69,VALID,0,VALID,95.5748,VALID,0,VALID,21.6908,VALID,350,VALID,0,
2013-06-08, 02:51:05,VALID,915.658,VALID,0,VALID,95.5138,VALID,0,VALID,21.6713,VALID,360,VALID,0,
2013-06-08, 02:52:05,VALID,915.62,VALID,0,VALID,95.5138,VALID,0,VALID,21.6323,VALID,360,VALID,0,
2013-06-08, 02:53:05,VALID,915.633,VALID,0,VALID,95.5138,VALID,0,VALID,21.6323,VALID,360,VALID,0,
2013-06-08, 02:54:05,VALID,915.65,VALID,0,VALID,95.5214,VALID,0,VALID,21.5737,VALID,360,VALID,0,
2013-06-08, 02:55:05,VALID,915.63,VALID,0,VALID,95.529,VALID,0,VALID,21.5542,VALID,360,VALID,0,
2013-06-08, 02:56:05,VALID,915.647,VALID,0,VALID,95.5519,VALID,0,VALID,21.5347,VALID,360,VALID,0,
2013-06-08, 02:57:05,VALID,915.639,VALID,0,VALID,95.5824,VALID,0,VALID,21.5152,VALID,360,VALID,0,
2013-06-08, 02:58:05,VALID,915.645,VALID,0,VALID,95.6357,VALID,0,VALID,21.5152,VALID,360,VALID,0,
2013-06-08, 02:59:05,VALID,915.595,VALID,0,VALID,95.6739,VALID,0,VALID,21.4957,VALID,360,VALID,0,
2013-06-08, 03:00:05,VALID,915.562,VALID,0,VALID,95.6967,VALID,0,VALID,21.455,VALID,360,VALID,0,
2013-06-08, 03:01:05,VALID,915.577,VALID,0,VALID,95.7196,VALID,0,VALID,21.4762,VALID,360,VALID,0,
2013-06-08, 03:02:05,VALID,915.529,VALID,0,VALID,95.7425,VALID,0,VALID,21.4762,VALID,360,VALID,0,
2013-06-08, 03:03:05,VALID,915.531,VALID,0,VALID,95.7654,VALID,0,VALID,21.4762,VALID,360,VALID,0,
2013-06-08, 03:04:05,VALID,915.516,VALID,0,VALID,95.7806,VALID,0,VALID,21.4567,VALID,360,VALID,0,
2013-06-08, 03:05:05,VALID,915.529,VALID,0,VALID,95.7882,VALID,0,VALID,21.4567,VALID,360,VALID,0,
2013-06-08, 03:06:05,VALID,915.507,VALID,0,VALID,95.8111,VALID,0,VALID,21.4567,VALID,360,VALID,0,
2013-06-08, 03:07:05,VALID,915.515,VALID,0,VALID,95.8187,VALID,0,VALID,21.4778,VALID,360,VALID,0,
2013-06-08, 03:08:05,VALID,915.51,VALID,0,VALID,95.8645,VALID,0,VALID,21.4567,VALID,360,VALID,0,
2013-06-08, 03:09:05,VALID,915.538,VALID,0,VALID,95.8873,VALID,0,VALID,21.4567,VALID,360,VALID,0,
2013-06-08, 03:10:05,VALID,915.539,VALID,0,VALID,95.8797,VALID,0,VALID,21.4583,VALID,360,VALID,0,
2013-06-08, 03:11:05,VALID,915.522,VALID,0,VALID,95.8492,VALID,0,VALID,21.3981,VALID,360,VALID,0,
2013-06-08, 03:12:05,VALID,915.512,VALID,0,VALID,95.7654,VALID,0,VALID,21.3396,VALID,360,VALID,0,
2013-06-08, 03:13:05,VALID,915.493,VALID,0,VALID,95.7349,VALID,0,VALID,21.3201,VALID,360,VALID,0,
2013-06-08, 03:14:05,VALID,915.494,VALID,0,VALID,95.7349,VALID,0,VALID,21.3006,VALID,360,VALID,0,
2013-06-08, 03:15:05,VALID,915.495,VALID,0,VALID,95.7349,VALID,0,VALID,21.2811,VALID,360,VALID,0,
2013-06-08, 03:16:05,VALID,915.505,VALID,0,VALID,95.6662,VALID,0,VALID,21.2616,VALID,360,VALID,0,
2013-06-08, 03:17:05,VALID,915.485,VALID,0,VALID,95.6129,VALID,0,VALID,21.2226,VALID,360,VALID,0,
2013-06-08, 03:18:05,VALID,915.463,VALID,0,VALID,95.6129,VALID,0,VALID,21.1836,VALID,360,VALID,0,
2013-06-08, 03:19:05,VALID,915.421,VALID,0,VALID,95.7044,VALID,0,VALID,21.2031,VALID,360,VALID,0,
2013-06-08, 03:20:05,VALID,915.409,VALID,0,VALID,95.7958,VALID,0,VALID,21.2226,VALID,360,VALID,0,
2013-06-08, 03:21:05,VALID,915.412,VALID,0,VALID,95.8263,VALID,0,VALID,21.2421,VALID,360,VALID,0,
2013-06-08, 03:22:05,VALID,915.352,VALID,0,VALID,95.7806,VALID,0,VALID,21.2242,VALID,360,VALID,0,
2013-06-08, 03:23:05,VALID,915.363,VALID,0,VALID,95.7501,VALID,0,VALID,21.1836,VALID,360,VALID,0,
2013-06-08, 03:24:05,VALID,915.331,VALID,0,VALID,95.7654,VALID,0,VALID,21.2047,VALID,360,VALID,0,
2013-06-08, 03:25:05,VALID,915.312,VALID,0,VALID,95.7577,VALID,0,VALID,21.1836,VALID,360,VALID,0,
2013-06-08, 03:26:05,VALID,915.269,VALID,0,VALID,95.8035,VALID,0,VALID,21.2031,VALID,360,VALID,0,
2013-06-08, 03:27:05,VALID,915.272,VALID,0,VALID,95.8568,VALID,0,VALID,21.2437,VALID,360,VALID,0,
2013-06-08, 03:28:05,VALID,915.283,VALID,0,VALID,95.8797,VALID,0,VALID,21.2421,VALID,360,VALID,0,
2013-06-08, 03:29:05,VALID,915.26,VALID,0,VALID,95.8873,VALID,0.107441,VALID,21.2421,VALID,360,VALID,0,
2013-06-08, 03:30:05,VALID,915.248,VALID,0,VALID,95.8187,VALID,0,VALID,21.2031,VALID,360,VALID,0,
2013-06-08, 03:31:05,VALID,915.222,VALID,0,VALID,95.7806,VALID,0.107441,VALID,21.1852,VALID,349,VALID,0,
2013-06-08, 03:32:05,VALID,915.241,VALID,0,VALID,95.8263,VALID,0,VALID,21.1624,VALID,335,VALID,0,
2013-06-08, 03:33:05,VALID,915.223,VALID,0,VALID,95.8568,VALID,0,VALID,21.2242,VALID,335,VALID,0,
2013-06-08, 03:34:05,VALID,915.228,VALID,0,VALID,95.8797,VALID,0,VALID,21.1836,VALID,335,VALID,0,
2013-06-08, 03:35:05,VALID,915.225,VALID,0,VALID,95.8568,VALID,0,VALID,21.2031,VALID,335,VALID,0,
2013-06-08, 03:36:05,VALID,915.229,VALID,0,VALID,95.8416,VALID,0,VALID,21.2031,VALID,335,VALID,0,
2013-06-08, 03:37:05,VALID,915.229,VALID,0,VALID,95.834,VALID,0,VALID,21.1852,VALID,335,VALID,0,
2013-06-08, 03:38:05,VALID,915.227,VALID,0,VALID,95.8187,VALID,0,VALID,21.1445,VALID,335,VALID,0,
2013-06-08, 03:39:05,VALID,915.248,VALID,0,VALID,95.8111,VALID,0,VALID,21.1445,VALID,335,VALID,0,
2013-06-08, 03:40:05,VALID,915.248,VALID,0,VALID,95.8187,VALID,0,VALID,21.1445,VALID,335,VALID,0,
2013-06-08, 03:41:05,VALID,915.263,VALID,0,VALID,95.834,VALID,0,VALID,21.1445,VALID,335,VALID,0,
2013-06-08, 03:42:05,VALID,915.251,VALID,0,VALID,95.8645,VALID,0,VALID,21.164,VALID,335,VALID,0,
2013-06-08, 03:43:05,VALID,915.272,VALID,0,VALID,95.8797,VALID,0,VALID,21.164,VALID,335,VALID,0,
2013-06-08, 03:44:05,VALID,915.231,VALID,0,VALID,95.8797,VALID,0,VALID,21.1445,VALID,335,VALID,0,
2013-06-08, 03:45:05,VALID,915.248,VALID,0,VALID,95.9026,VALID,0,VALID,21.164,VALID,335,VALID,0,
2013-06-08, 03:46:05,VALID,915.223,VALID,0,VALID,95.9407,VALID,0,VALID,21.2047,VALID,335,VALID,0,
2013-06-08, 03:47:05,VALID,915.245,VALID,0,VALID,95.9788,VALID,0,VALID,21.2031,VALID,335,VALID,0,
2013-06-08, 03:48:05,VALID,915.25,VALID,0,VALID,95.9788,VALID,0,VALID,21.2242,VALID,335,VALID,0,
2013-06-08, 03:49:05,VALID,915.237,VALID,0,VALID,95.9864,VALID,0,VALID,21.2031,VALID,335,VALID,0,
2013-06-08, 03:50:05,VALID,915.246,VALID,0,VALID,95.9864,VALID,0,VALID,21.164,VALID,335,VALID,0,
2013-06-08, 03:51:05,VALID,915.215,VALID,0,VALID,95.9254,VALID,0,VALID,21.1657,VALID,335,VALID,0,
2013-06-08, 03:52:05,VALID,915.214,VALID,0,VALID,95.9254,VALID,0,VALID,21.164,VALID,335,VALID,0,
2013-06-08, 03:53:05,VALID,915.19,VALID,0,VALID,95.9559,VALID,0,VALID,21.164,VALID,335,VALID,0,
2013-06-08, 03:54:05,VALID,915.213,VALID,0,VALID,95.9788,VALID,0,VALID,21.1836,VALID,335,VALID,0,
2013-06-08, 03:55:05,VALID,915.184,VALID,0,VALID,95.9712,VALID,0,VALID,21.1852,VALID,335,VALID,0,
2013-06-08, 03:56:05,VALID,915.165,VALID,0,VALID,95.9864,VALID,0,VALID,21.2047,VALID,335,VALID,0,
2013-06-08, 03:57:05,VALID,915.182,VALID,0,VALID,95.9712,VALID,0,VALID,21.164,VALID,335,VALID,0,
2013-06-08, 03:58:05,VALID,915.126,VALID,0,VALID,95.9712,VALID,0,VALID,21.1657,VALID,335,VALID,0,
2013-06-08, 03:59:05,VALID,915.14,VALID,0,VALID,95.9712,VALID,0,VALID,21.1852,VALID,335,VALID,0,
2013-06-08, 04:00:05,VALID,915.146,VALID,0,VALID,95.9864,VALID,0,VALID,21.164,VALID,335,VALID,0,